Date,TemperatureHighF,TemperatureAvgF,TemperatureLowF,DewpointHighF,DewpointAvgF,DewpointLowF,HumidityHigh,HumidityAvg,HumidityLow,PressureMaxIn,PressureMinIn,WindSpeedMaxMPH,WindSpeedAvgMPH,GustSpeedMaxMPH,PrecipitationSumIn
2013-2-1,30.7,19.5,9.5,9.3,-3.4,-9.5,50,36,21,30.53,30.25,14,3,22,0.00
2013-2-2,43.5,34.7,28.6,27.6,17.9,7.6,84,51,39,30.26,30.08,17,4,29,0.00
2013-2-3,37.6,32.1,28.8,31.1,20.1,8.0,95,64,30,30.21,30.03,16,3,24,0.00
2013-2-4,36.3,31.1,27.9,25.0,20.7,15.8,71,65,59,30.03,29.85,2,0,3,0.00
2013-2-12,48.6,40.5,32.5,29.4,26.7,22.7,72,58,43,30.19,29.97,3,0,4,0.00
2013-2-13,56.1,45.2,37.8,33.1,27.7,17.7,72,53,23,29.97,29.83,13,4,23,0.00
2013-2-14,57.9,47.6,40.5,33.4,30.8,26.6,71,54,30,30.09,29.84,14,5,19,0.00
2013-2-15,44.2,36.7,30.2,27.5,14.6,3.2,71,43,22,30.30,30.09,8,4,13,0.00
2013-2-16,38.7,29.8,22.8,12.6,6.8,-3.2,57,40,18,30.30,30.19,10,3,16,0.00
2013-2-17,33.4,28.2,26.6,14.5,11.6,8.7,55,49,44,30.22,30.18,3,0,4,0.00
2013-2-18,57.0,48.5,39.4,49.6,40.9,29.5,94,75,65,29.94,29.59,15,3,25,0.09
2013-2-19,35.6,30.0,25.7,12.4,7.8,1.0,51,39,25,30.32,30.07,17,6,31,0.00
2013-2-20,28.0,23.9,19.2,9.4,6.0,2.3,54,46,36,30.44,30.31,8,1,11,0.00
2013-2-21,32.4,27.3,23.2,30.6,19.4,9.2,93,73,54,30.35,29.85,4,1,8,0.00
2013-2-22,36.5,32.9,26.2,33.9,25.9,15.7,98,77,54,30.11,29.83,15,4,24,0.19
2013-2-23,40.8,29.5,21.0,19.7,16.6,14.0,76,59,39,30.09,30.00,9,2,16,0.02
2013-2-24,52.5,36.5,24.3,27.1,23.0,16.6,81,60,34,30.15,30.05,3,0,4,0.00
2013-2-25,48.7,39.7,33.4,33.3,29.2,25.1,87,67,49,30.09,29.62,8,1,11,0.12
2013-2-26,45.1,37.6,34.3,44.3,36.1,31.2,99,94,87,29.70,29.38,11,2,20,0.28
2013-2-27,35.4,33.7,32.2,31.4,29.8,26.6,91,86,79,29.91,29.69,15,6,24,0.14
2013-2-28,35.1,33.4,32.2,29.0,27.4,25.8,86,79,70,30.13,29.91,10,4,15,0.02